| time (UTC) | temp C | wind direction | speed KPH | gust KPH | rain 1hr cm | rain 24hr cm | rain mn cm | humidity % | barometer mb |
| 20260507095506 | 11 | 329 | 0.0 | 3.2 | 0.00 | 0.00 | 0.00 | 75 | 1021.6 |
| 20260507095003 | 11 | 244 | 0.0 | 3.2 | 0.00 | 0.00 | 0.00 | 76 | 1021.7 |
| 20260507094503 | 11 | 245 | 0.0 | 3.2 | 0.00 | 0.00 | 0.00 | 75 | 1021.7 |
| 20260507094002 | 11 | 275 | 0.0 | 3.2 | 0.00 | 0.00 | 0.00 | 75 | 1021.7 |
| 20260507093502 | 11 | 252 | 0.0 | 3.2 | 0.00 | 0.00 | 0.00 | 75 | 1021.8 |
| 20260507093003 | 11 | 254 | 0.0 | 3.2 | 0.00 | 0.00 | 0.00 | 75 | 1021.9 |
| 20260507092507 | 11 | 248 | 0.0 | 3.2 | 0.00 | 0.00 | 0.00 | 75 | 1021.9 |
| 20260507092003 | 11 | 272 | 0.0 | 4.8 | 0.00 | 0.00 | 0.00 | 75 | 1021.9 |
| 20260507091503 | 11 | 269 | 0.0 | 4.8 | 0.00 | 0.00 | 0.00 | 75 | 1022.1 |
| 20260507091004 | 11 | 273 | 0.0 | 3.2 | 0.00 | 0.00 | 0.00 | 75 | 1022.1 |
| 20260507090503 | 11 | 273 | 0.0 | 3.2 | 0.00 | 0.00 | 0.00 | 75 | 1022.1 |
| 20260507090004 | 11 | 257 | 0.0 | 4.8 | 0.00 | 0.00 | 0.00 | 75 | 1022.1 |
| 20260507085503 | 11 | 263 | 0.0 | 4.8 | 0.00 | 0.00 | 0.00 | 75 | 1022.1 |
| 20260507085002 | 11 | 246 | 0.0 | 3.2 | 0.00 | 0.00 | 0.00 | 75 | 1022.1 |
| 20260507084504 | 11 | 311 | 0.0 | 3.2 | 0.00 | 0.00 | 0.00 | 75 | 1022.1 |
| 20260507084003 | 11 | 333 | 0.0 | 3.2 | 0.00 | 0.00 | 0.00 | 75 | 1022.1 |
| 20260507083503 | 11 | 240 | 0.0 | 3.2 | 0.00 | 0.00 | 0.00 | 76 | 1022.1 |
| 20260507083012 | 11 | 270 | 0.0 | 3.2 | 0.00 | 0.00 | 0.00 | 76 | 1022.1 |
| 20260507082504 | 11 | 238 | 0.0 | 1.6 | 0.00 | 0.00 | 0.00 | 76 | 1022.1 |
| 20260507082005 | 11 | 266 | 0.0 | 3.2 | 0.00 | 0.00 | 0.00 | 76 | 1022.1 |
| 20260507081506 | 11 | 266 | 0.0 | 3.2 | 0.00 | 0.00 | 0.00 | 76 | 1022.1 |
| 20260507081003 | 11 | 265 | 0.0 | 3.2 | 0.00 | 0.00 | 0.00 | 76 | 1022.1 |
| 20260507080503 | 11 | 259 | 0.0 | 3.2 | 0.00 | 0.00 | 0.00 | 77 | 1022.0 |
| 20260507080007 | 11 | 264 | 0.0 | 3.2 | 0.00 | 0.00 | 0.00 | 76 | 1022.0 |
| 20260507075507 | 11 | 300 | 0.0 | 3.2 | 0.00 | 0.00 | 0.00 | 77 | 1022.1 |
| 20260507075002 | 11 | 248 | 0.0 | 3.2 | 0.00 | 0.00 | 0.00 | 77 | 1022.0 |
| 20260507074504 | 11 | 288 | 0.0 | 1.6 | 0.00 | 0.00 | 0.00 | 77 | 1022.1 |
| 20260507074007 | 11 | 278 | 0.0 | 3.2 | 0.00 | 0.00 | 0.00 | 78 | 1022.0 |
| 20260507073502 | 12 | 265 | 0.0 | 3.2 | 0.00 | 0.00 | 0.00 | 78 | 1022.0 |
| 20260507073004 | 12 | 238 | 0.0 | 3.2 | 0.00 | 0.00 | 0.00 | 78 | 1022.1 |
| 20260507072503 | 12 | 238 | 0.0 | 4.8 | 0.00 | 0.00 | 0.00 | 78 | 1022.0 |
| 20260507072003 | 12 | 261 | 0.0 | 4.8 | 0.00 | 0.00 | 0.00 | 78 | 1022.0 |
| 20260507071511 | 12 | 252 | 0.0 | 4.8 | 0.00 | 0.00 | 0.00 | 78 | 1022.0 |
| 20260507071003 | 12 | 281 | 0.0 | 3.2 | 0.00 | 0.00 | 0.00 | 79 | 1021.9 |
| 20260507070504 | 12 | 309 | 0.0 | 3.2 | 0.00 | 0.00 | 0.00 | 80 | 1021.9 |
| 20260507070022 | 12 | 287 | 0.0 | 3.2 | 0.00 | 0.00 | 0.00 | 80 | 1021.9 |
| 20260507065505 | 12 | 338 | 0.0 | 3.2 | 0.00 | 0.00 | 0.00 | 80 | 1021.9 |
| 20260507065006 | 12 | 310 | 0.0 | 3.2 | 0.00 | 0.00 | 0.00 | 80 | 1021.9 |
| 20260507064521 | 12 | 9 | 0.0 | 3.2 | 0.00 | 0.00 | 0.00 | 80 | 1021.9 |
| 20260507064005 | 12 | 317 | 0.0 | 3.2 | 0.00 | 0.00 | 0.00 | 79 | 1021.9 |
| 20260507063504 | 12 | 290 | 0.0 | 3.2 | 0.00 | 0.00 | 0.00 | 79 | 1021.9 |
| 20260507063015 | 12 | 309 | 0.0 | 1.6 | 0.00 | 0.00 | 0.00 | 79 | 1022.0 |
| 20260507062504 | 12 | 296 | 0.0 | 0.0 | 0.00 | 0.00 | 0.00 | 79 | 1022.0 |
| 20260507062003 | 12 | 332 | 0.0 | 3.2 | 0.00 | 0.00 | 0.00 | 78 | 1021.9 |
| 20260507061510 | 12 | 333 | 0.0 | 3.2 | 0.00 | 0.00 | 0.00 | 78 | 1022.0 |
| 20260507061006 | 12 | 343 | 0.0 | 3.2 | 0.00 | 0.00 | 0.00 | 79 | 1022.0 |
| 20260507060503 | 12 | 351 | 0.0 | 3.2 | 0.00 | 0.00 | 0.00 | 78 | 1022.0 |
| 20260507060009 | 12 | 340 | 0.0 | 3.2 | 0.00 | 0.00 | 0.00 | 78 | 1022.0 |
| 20260507055504 | 12 | 307 | 0.0 | 3.2 | 0.00 | 0.00 | 0.00 | 78 | 1021.9 |
| 20260507055007 | 12 | 319 | 0.0 | 1.6 | 0.00 | 0.00 | 0.00 | 78 | 1021.9 |
| 20260507054505 | 12 | 319 | 0.0 | 3.2 | 0.00 | 0.00 | 0.00 | 78 | 1021.9 |
| 20260507054005 | 12 | 352 | 0.0 | 3.2 | 0.00 | 0.00 | 0.00 | 78 | 1021.9 |
| 20260507053504 | 12 | 17 | 0.0 | 4.8 | 0.00 | 0.00 | 0.00 | 77 | 1021.8 |
| 20260507053032 | 12 | 308 | 0.0 | 4.8 | 0.00 | 0.00 | 0.00 | 77 | 1021.7 |
| 20260507052507 | 12 | 350 | 0.0 | 1.6 | 0.00 | 0.00 | 0.00 | 77 | 1021.7 |
| 20260507052004 | 13 | 342 | 0.0 | 4.8 | 0.00 | 0.00 | 0.00 | 77 | 1021.8 |
| 20260507051530 | 13 | 63 | 0.0 | 4.8 | 0.00 | 0.00 | 0.00 | 77 | 1021.8 |
| 20260507051003 | 13 | 60 | 1.6 | 4.8 | 0.00 | 0.00 | 0.00 | 77 | 1021.8 |
| 20260507050504 | 13 | 26 | 0.0 | 3.2 | 0.00 | 0.00 | 0.00 | 77 | 1021.9 |
| 20260507050027 | 13 | 57 | 0.0 | 4.8 | 0.00 | 0.00 | 0.00 | 77 | 1021.8 |
| 20260507045503 | 13 | 95 | 0.0 | 4.8 | 0.00 | 0.00 | 0.00 | 76 | 1021.9 |
| 20260507045007 | 13 | 5 | 0.0 | 3.2 | 0.00 | 0.00 | 0.00 | 77 | 1021.8 |
| 20260507044515 | 13 | 326 | 0.0 | 3.2 | 0.00 | 0.00 | 0.00 | 76 | 1021.8 |
| 20260507044003 | 13 | 323 | 0.0 | 3.2 | 0.00 | 0.00 | 0.00 | 78 | 1021.9 |
| 20260507043512 | 13 | 352 | 0.0 | 4.8 | 0.00 | 0.00 | 0.00 | 78 | 1021.8 |
| 20260507043014 | 13 | 343 | 0.0 | 4.8 | 0.00 | 0.00 | 0.00 | 78 | 1021.8 |
| 20260507042509 | 13 | 16 | 0.0 | 4.8 | 0.00 | 0.00 | 0.00 | 77 | 1021.7 |
| 20260507042012 | 13 | 32 | 0.0 | 4.8 | 0.00 | 0.00 | 0.00 | 77 | 1021.7 |
| 20260507041508 | 13 | 32 | 0.0 | 8.0 | 0.00 | 0.00 | 0.00 | 77 | 1021.7 |
| 20260507041004 | 13 | 352 | 3.2 | 8.0 | 0.00 | 0.00 | 0.00 | 77 | 1021.6 |
| 20260507040507 | 13 | 317 | 0.0 | 6.4 | 0.00 | 0.00 | 0.00 | 77 | 1021.4 |
| 20260507040010 | 13 | 352 | 0.0 | 6.4 | 0.00 | 0.00 | 0.00 | 77 | 1021.4 |
| 20260507035505 | 13 | 67 | 0.0 | 6.4 | 0.00 | 0.00 | 0.00 | 76 | 1021.4 |
| 20260507035005 | 13 | 350 | 1.6 | 6.4 | 0.00 | 0.00 | 0.00 | 76 | 1021.3 |
| 20260507034534 | 13 | 74 | 0.0 | 6.4 | 0.00 | 0.00 | 0.00 | 76 | 1021.3 |
| 20260507034004 | 13 | 327 | 0.0 | 6.4 | 0.00 | 0.00 | 0.00 | 76 | 1021.2 |
| 20260507033505 | 14 | 14 | 1.6 | 6.4 | 0.00 | 0.00 | 0.00 | 76 | 1021.1 |
| 20260507033036 | 14 | 57 | 0.0 | 8.0 | 0.00 | 0.00 | 0.00 | 75 | 1021.1 |
| 20260507032509 | 14 | 338 | 0.0 | 8.0 | 0.00 | 0.00 | 0.00 | 75 | 1021.0 |
| 20260507032010 | 14 | 138 | 0.0 | 8.0 | 0.00 | 0.00 | 0.00 | 75 | 1020.9 |
| 20260507031521 | 14 | 346 | 1.6 | 8.0 | 0.00 | 0.00 | 0.00 | 74 | 1020.8 |
| 20260507031008 | 15 | 48 | 0.0 | 3.2 | 0.00 | 0.00 | 0.00 | 75 | 1020.8 |
| 20260507030514 | 15 | 336 | 0.0 | 3.2 | 0.00 | 0.00 | 0.00 | 74 | 1020.7 |
| 20260507030020 | 15 | 35 | 0.0 | 3.2 | 0.00 | 0.00 | 0.00 | 74 | 1020.7 |
| 20260507025504 | 15 | 350 | 0.0 | 6.4 | 0.00 | 0.00 | 0.00 | 74 | 1020.6 |
| 20260507025015 | 15 | 340 | 3.2 | 6.4 | 0.00 | 0.00 | 0.00 | 73 | 1020.6 |
| 20260507024603 | 15 | 352 | 1.6 | 4.8 | 0.00 | 0.00 | 0.00 | 74 | 1020.5 |
| 20260507023025 | 15 | 157 | 0.0 | 8.0 | 0.00 | 0.00 | 0.00 | 73 | 1020.4 |
| 20260507022916 | 15 | 40 | 1.6 | 8.0 | 0.00 | 0.00 | 0.00 | 73 | 1020.4 |
| 20260507022912 | 15 | 5 | 1.6 | 8.0 | 0.00 | 0.00 | 0.00 | 73 | 1020.4 |
| 20260507022905 | 16 | 27 | 1.6 | 11.3 | 0.00 | 0.00 | 0.00 | 72 | 1020.4 |
| 20260507022858 | 16 | 105 | 0.0 | 8.0 | 0.00 | 0.00 | 0.00 | 71 | 1020.4 |
| 20260507022853 | 16 | 320 | 1.6 | 6.4 | 0.00 | 0.00 | 0.00 | 71 | 1020.4 |
| 20260507022847 | 16 | 32 | 0.0 | 4.8 | 0.00 | 0.00 | 0.00 | 70 | 1020.5 |
| 20260507022844 | 17 | 360 | 1.6 | 8.0 | 0.00 | 0.00 | 0.00 | 69 | 1020.5 |
| 20260507022837 | 17 | 126 | 1.6 | 8.0 | 0.00 | 0.00 | 0.00 | 68 | 1020.5 |
| 20260507022832 | 17 | 92 | 1.6 | 8.0 | 0.00 | 0.00 | 0.00 | 67 | 1020.5 |
| 20260507022830 | 17 | 9 | 3.2 | 8.0 | 0.00 | 0.00 | 0.00 | 69 | 1020.6 |
| 20260507022827 | 17 | 50 | 0.0 | 4.8 | 0.00 | 0.00 | 0.00 | 67 | 1020.5 |
| 20260507022823 | 17 | 325 | 0.0 | 12.9 | 0.00 | 0.00 | 0.00 | 68 | 1020.5 |
| 20260507022815 | 17 | 135 | 1.6 | 16.1 | 0.00 | 0.00 | 0.00 | 68 | 1020.5 |
| 20260507022811 | 17 | 310 | 3.2 | 14.5 | 0.00 | 0.00 | 0.00 | 67 | 1020.4 |
| 20260507022807 | 18 | 26 | 3.2 | 14.5 | 0.00 | 0.00 | 0.00 | 67 | 1020.4 |
| 20260507022802 | 18 | 67 | 1.6 | 12.9 | 0.00 | 0.00 | 0.00 | 66 | 1020.3 |
| 20260507003509 | 18 | 9 | 1.6 | 11.3 | 0.00 | 0.00 | 0.00 | 66 | 1020.3 |
| 20260507003021 | 18 | 283 | 1.6 | 11.3 | 0.00 | 0.00 | 0.00 | 65 | 1020.1 |
| 20260507002503 | 18 | 326 | 3.2 | 11.3 | 0.00 | 0.00 | 0.00 | 64 | 1020.2 |
| 20260507002010 | 18 | 5 | 1.6 | 8.0 | 0.00 | 0.00 | 0.00 | 64 | 1020.1 |
| 20260507001518 | 18 | 78 | 3.2 | 8.0 | 0.00 | 0.00 | 0.00 | 65 | 1020.1 |
| 20260507001012 | 18 | 30 | 1.6 | 8.0 | 0.00 | 0.00 | 0.00 | 65 | 1020.1 |
| 20260507000506 | 18 | 11 | 0.0 | 6.4 | 0.00 | 0.00 | 0.00 | 67 | 1020.1 |
| 20260507000017 | 18 | 360 | 1.6 | 4.8 | 0.00 | 0.00 | 0.00 | 68 | 1020.0 |
| 20260506235508 | 18 | 9 | 0.0 | 4.8 | 0.00 | 0.00 | 0.00 | 69 | 1020.1 |
| 20260506235005 | 18 | 90 | 0.0 | 4.8 | 0.00 | 0.00 | 0.00 | 68 | 1020.2 |
| 20260506234502 | 19 | 30 | 0.0 | 4.8 | 0.00 | 0.00 | 0.00 | 69 | 1020.1 |
| 20260506234001 | 19 | 350 | 0.0 | 9.7 | 0.00 | 0.00 | 0.00 | 68 | 1020.1 |
| 20260506233502 | 19 | 43 | 1.6 | 9.7 | 0.00 | 0.00 | 0.00 | 66 | 1020.1 |
| 20260506233003 | 19 | 42 | 1.6 | 9.7 | 0.00 | 0.00 | 0.00 | 67 | 1020.1 |
| 20260506232502 | 19 | 24 | 1.6 | 6.4 | 0.00 | 0.00 | 0.00 | 67 | 1020.0 |
| 20260506232002 | 19 | 5 | 1.6 | 4.8 | 0.00 | 0.00 | 0.00 | 67 | 1020.1 |
| 20260506231503 | 20 | 350 | 1.6 | 8.0 | 0.00 | 0.00 | 0.00 | 66 | 1020.1 |
| 20260506231001 | 20 | 321 | 1.6 | 8.0 | 0.00 | 0.00 | 0.00 | 65 | 1020.2 |
| 20260506230502 | 20 | 316 | 0.0 | 8.0 | 0.00 | 0.00 | 0.00 | 66 | 1020.2 |
| 20260506230002 | 20 | 340 | 1.6 | 8.0 | 0.00 | 0.00 | 0.00 | 65 | 1020.2 |
| 20260506225502 | 20 | 32 | 1.6 | 8.0 | 0.00 | 0.00 | 0.00 | 64 | 1020.3 |
| 20260506225002 | 20 | 336 | 0.0 | 8.0 | 0.00 | 0.00 | 0.00 | 64 | 1020.3 |
| 20260506224503 | 20 | 317 | 3.2 | 8.0 | 0.00 | 0.00 | 0.00 | 64 | 1020.5 |
| 20260506224004 | 20 | 293 | 1.6 | 8.0 | 0.00 | 0.00 | 0.00 | 65 | 1020.5 |
| 20260506223501 | 20 | 65 | 1.6 | 8.0 | 0.00 | 0.00 | 0.00 | 65 | 1020.5 |
| 20260506223003 | 20 | 14 | 1.6 | 8.0 | 0.00 | 0.00 | 0.00 | 64 | 1020.6 |
| 20260506222502 | 20 | 336 | 0.0 | 8.0 | 0.00 | 0.00 | 0.00 | 66 | 1020.5 |
| 20260506222003 | 20 | 51 | 3.2 | 8.0 | 0.00 | 0.00 | 0.00 | 64 | 1020.6 |
| 20260506221507 | 20 | 39 | 1.6 | 6.4 | 0.00 | 0.00 | 0.00 | 66 | 1020.7 |
| 20260506221002 | 20 | 17 | 1.6 | 6.4 | 0.00 | 0.00 | 0.00 | 66 | 1020.7 |
| 20260506220502 | 20 | 333 | 0.0 | 6.4 | 0.00 | 0.00 | 0.00 | 67 | 1020.7 |
| 20260506220003 | 20 | 63 | 1.6 | 6.4 | 0.00 | 0.00 | 0.00 | 65 | 1020.7 |
| 20260506215503 | 20 | 346 | 1.6 | 6.4 | 0.00 | 0.00 | 0.00 | 66 | 1020.6 |
| 20260506215002 | 20 | 71 | 0.0 | 11.3 | 0.00 | 0.00 | 0.00 | 64 | 1020.7 |
| 20260506214505 | 20 | 76 | 3.2 | 11.3 | 0.00 | 0.00 | 0.00 | 65 | 1020.6 |
| 20260506214001 | 19 | 82 | 0.0 | 6.4 | 0.00 | 0.00 | 0.00 | 66 | 1020.6 |
| 20260506213503 | 19 | 94 | 1.6 | 6.4 | 0.00 | 0.00 | 0.00 | 69 | 1020.6 |
| 20260506213003 | 19 | 298 | 0.0 | 6.4 | 0.00 | 0.00 | 0.00 | 67 | 1020.6 |
| 20260506212503 | 18 | 39 | 1.6 | 8.0 | 0.00 | 0.00 | 0.00 | 67 | 1020.7 |
| 20260506212003 | 18 | 16 | 0.0 | 8.0 | 0.00 | 0.00 | 0.00 | 68 | 1020.6 |
| 20260506211502 | 19 | 333 | 1.6 | 8.0 | 0.00 | 0.00 | 0.00 | 66 | 1020.7 |
| 20260506211003 | 19 | 351 | 3.2 | 9.7 | 0.00 | 0.00 | 0.00 | 66 | 1020.8 |
| 20260506210503 | 20 | 320 | 3.2 | 9.7 | 0.00 | 0.00 | 0.00 | 65 | 1020.9 |
| 20260506210010 | 20 | 270 | 1.6 | 6.4 | 0.00 | 0.00 | 0.00 | 67 | 1020.9 |
| 20260506205504 | 19 | 102 | 0.0 | 8.0 | 0.00 | 0.00 | 0.00 | 65 | 1021.0 |
| 20260506205004 | 19 | 179 | 3.2 | 8.0 | 0.00 | 0.00 | 0.00 | 66 | 1021.0 |
| 20260506204504 | 19 | 179 | 1.6 | 6.4 | 0.00 | 0.00 | 0.00 | 65 | 1021.0 |
| 20260506204003 | 19 | 169 | 0.0 | 6.4 | 0.00 | 0.00 | 0.00 | 64 | 1021.1 |
| 20260506203502 | 20 | 146 | 0.0 | 4.8 | 0.00 | 0.00 | 0.00 | 65 | 1021.1 |
| 20260506203002 | 20 | 360 | 1.6 | 4.8 | 0.00 | 0.00 | 0.00 | 66 | 1021.0 |
| 20260506202503 | 19 | 169 | 0.0 | 8.0 | 0.00 | 0.00 | 0.00 | 67 | 1021.1 |
| 20260506202005 | 18 | 59 | 4.8 | 8.0 | 0.00 | 0.00 | 0.00 | 67 | 1021.0 |
| 20260506201502 | 18 | 95 | 3.2 | 8.0 | 0.00 | 0.00 | 0.00 | 68 | 1021.0 |
| 20260506201004 | 18 | 317 | 1.6 | 6.4 | 0.00 | 0.00 | 0.00 | 69 | 1021.0 |
| 20260506200503 | 18 | 302 | 1.6 | 14.5 | 0.00 | 0.00 | 0.00 | 71 | 1021.0 |
| 20260506200005 | 18 | 115 | 8.0 | 14.5 | 0.00 | 0.00 | 0.00 | 72 | 1021.1 |
| 20260506195503 | 17 | 311 | 1.6 | 4.8 | 0.00 | 0.00 | 0.00 | 72 | 1021.2 |
| 20260506195003 | 17 | 42 | 1.6 | 4.8 | 0.00 | 0.00 | 0.00 | 74 | 1021.3 |
| 20260506194503 | 17 | 53 | 0.0 | 6.4 | 0.00 | 0.00 | 0.00 | 75 | 1021.3 |
| 20260506194002 | 16 | 300 | 3.2 | 6.4 | 0.00 | 0.00 | 0.00 | 75 | 1021.4 |
| 20260506193504 | 16 | 83 | 1.6 | 6.4 | 0.00 | 0.00 | 0.00 | 75 | 1021.4 |
| 20260506193002 | 16 | 66 | 0.0 | 4.8 | 0.00 | 0.00 | 0.00 | 76 | 1021.4 |
| 20260506192503 | 16 | 26 | 0.0 | 6.4 | 0.00 | 0.00 | 0.00 | 77 | 1021.5 |
| 20260506192003 | 16 | 21 | 0.0 | 6.4 | 0.00 | 0.00 | 0.00 | 78 | 1021.5 |
| 20260506191503 | 16 | 360 | 1.6 | 4.8 | 0.00 | 0.00 | 0.00 | 78 | 1021.5 |
| 20260506191004 | 15 | 17 | 0.0 | 4.8 | 0.00 | 0.00 | 0.00 | 78 | 1021.4 |
| 20260506190503 | 15 | 320 | 0.0 | 6.4 | 0.00 | 0.00 | 0.00 | 79 | 1021.4 |
| 20260506190005 | 16 | 261 | 0.0 | 8.0 | 0.00 | 0.00 | 0.00 | 79 | 1021.3 |
| 20260506185501 | 16 | 62 | 0.0 | 8.0 | 0.00 | 0.00 | 0.00 | 79 | 1021.4 |
| 20260506185003 | 16 | 333 | 1.6 | 4.8 | 0.00 | 0.00 | 0.00 | 78 | 1021.3 |
| 20260506184503 | 16 | 352 | 0.0 | 3.2 | 0.00 | 0.00 | 0.00 | 78 | 1021.3 |
| 20260506184004 | 15 | 62 | 0.0 | 3.2 | 0.00 | 0.00 | 0.00 | 78 | 1021.3 |
| 20260506183502 | 15 | 51 | 0.0 | 3.2 | 0.00 | 0.00 | 0.00 | 79 | 1021.3 |
| 20260506183006 | 15 | 78 | 0.0 | 3.2 | 0.00 | 0.00 | 0.00 | 79 | 1021.4 |
| 20260506182501 | 15 | 92 | 1.6 | 3.2 | 0.00 | 0.00 | 0.00 | 80 | 1021.3 |
| 20260506182003 | 15 | 67 | 0.0 | 3.2 | 0.00 | 0.00 | 0.00 | 80 | 1021.3 |
| 20260506181503 | 15 | 208 | 0.0 | 3.2 | 0.00 | 0.00 | 0.00 | 81 | 1021.2 |
| 20260506181002 | 15 | 340 | 0.0 | 3.2 | 0.00 | 0.00 | 0.00 | 80 | 1021.3 |
| 20260506180503 | 15 | 340 | 0.0 | 3.2 | 0.00 | 0.00 | 0.00 | 82 | 1021.3 |
| 20260506180009 | 15 | 250 | 0.0 | 1.6 | 0.00 | 0.00 | 0.00 | 82 | 1021.3 |
| 20260506175503 | 15 | 295 | 0.0 | 3.2 | 0.00 | 0.00 | 0.00 | 81 | 1021.4 |
| 20260506175006 | 14 | 340 | 0.0 | 3.2 | 0.00 | 0.00 | 0.00 | 81 | 1021.3 |
| 20260506174507 | 14 | 194 | 0.0 | 3.2 | 0.00 | 0.00 | 0.00 | 82 | 1021.3 |
| 20260506174001 | 14 | 193 | 0.0 | 3.2 | 0.00 | 0.00 | 0.00 | 82 | 1021.3 |
| 20260506173503 | 14 | 280 | 0.0 | 1.6 | 0.00 | 0.00 | 0.00 | 82 | 1021.3 |
| 20260506173010 | 14 | 182 | 0.0 | 1.6 | 0.00 | 0.00 | 0.00 | 82 | 1021.2 |
| 20260506172504 | 14 | 182 | 0.0 | 3.2 | 0.00 | 0.00 | 0.00 | 83 | 1021.1 |
| 20260506172002 | 14 | 60 | 0.0 | 3.2 | 0.00 | 0.00 | 0.00 | 82 | 1021.1 |
| 20260506171507 | 14 | 84 | 0.0 | 3.2 | 0.00 | 0.00 | 0.00 | 82 | 1021.1 |
| 20260506171003 | 14 | 68 | 0.0 | 6.4 | 0.00 | 0.00 | 0.00 | 82 | 1021.1 |
| 20260506170505 | 14 | 154 | 0.0 | 6.4 | 0.00 | 0.00 | 0.00 | 82 | 1021.0 |
| 20260506170009 | 14 | 145 | 0.0 | 4.8 | 0.00 | 0.00 | 0.00 | 82 | 1021.1 |
| 20260506165506 | 14 | 164 | 0.0 | 3.2 | 0.00 | 0.00 | 0.00 | 83 | 1021.1 |
| 20260506165003 | 13 | 164 | 0.0 | 3.2 | 0.00 | 0.00 | 0.00 | 83 | 1021.1 |
| 20260506164510 | 13 | 155 | 0.0 | 3.2 | 0.00 | 0.00 | 0.00 | 83 | 1021.1 |
| 20260506164002 | 13 | 101 | 0.0 | 3.2 | 0.00 | 0.00 | 0.00 | 82 | 1021.2 |
| 20260506163503 | 13 | 248 | 0.0 | 3.2 | 0.00 | 0.00 | 0.00 | 82 | 1021.2 |
| 20260506163011 | 13 | 95 | 0.0 | 3.2 | 0.00 | 0.00 | 0.00 | 82 | 1021.1 |
| 20260506162504 | 13 | 132 | 0.0 | 4.8 | 0.00 | 0.00 | 0.00 | 82 | 1021.1 |
| 20260506162003 | 13 | 178 | 1.6 | 4.8 | 0.00 | 0.00 | 0.00 | 82 | 1021.3 |
| 20260506161512 | 13 | 184 | 1.6 | 4.8 | 0.00 | 0.00 | 0.00 | 83 | 1021.3 |
| 20260506161004 | 13 | 149 | 0.0 | 3.2 | 0.00 | 0.00 | 0.00 | 83 | 1021.3 |
| 20260506160502 | 13 | 227 | 0.0 | 4.8 | 0.00 | 0.00 | 0.00 | 83 | 1021.0 |
| 20260506160013 | 13 | 160 | 1.6 | 4.8 | 0.00 | 0.00 | 0.00 | 84 | 1020.9 |
| 20260506155506 | 13 | 148 | 0.0 | 3.2 | 0.00 | 0.00 | 0.00 | 83 | 1020.8 |
| 20260506155007 | 13 | 169 | 0.0 | 6.4 | 0.00 | 0.00 | 0.00 | 84 | 1020.9 |
| 20260506154511 | 13 | 85 | 0.0 | 6.4 | 0.00 | 0.00 | 0.00 | 84 | 1020.5 |
| 20260506154004 | 13 | 96 | 1.6 | 3.2 | 0.00 | 0.00 | 0.00 | 85 | 1020.4 |
| 20260506153503 | 13 | 169 | 0.0 | 6.4 | 0.00 | 0.00 | 0.00 | 85 | 1020.4 |
| 20260506153012 | 13 | 104 | 1.6 | 6.4 | 0.00 | 0.00 | 0.00 | 85 | 1020.3 |
| 20260506152503 | 12 | 94 | 0.0 | 4.8 | 0.00 | 0.00 | 0.00 | 85 | 1020.4 |
| 20260506152004 | 12 | 77 | 1.6 | 4.8 | 0.00 | 0.00 | 0.00 | 85 | 1020.3 |
| 20260506151514 | 12 | 159 | 0.0 | 4.8 | 0.00 | 0.00 | 0.00 | 85 | 1020.6 |
| 20260506151005 | 12 | 330 | 0.0 | 3.2 | 0.00 | 0.00 | 0.00 | 85 | 1020.9 |
| 20260506150504 | 12 | 84 | 0.0 | 3.2 | 0.00 | 0.00 | 0.00 | 84 | 1021.0 |
| 20260506150015 | 12 | 76 | 0.0 | 3.2 | 0.00 | 0.00 | 0.00 | 84 | 1021.1 |
| 20260506145504 | 12 | 340 | 0.0 | 3.2 | 0.00 | 0.00 | 0.00 | 85 | 1021.0 |
| 20260506145005 | 12 | 352 | 0.0 | 3.2 | 0.00 | 0.00 | 0.00 | 85 | 1021.0 |
| 20260506144502 | 13 | 342 | 0.0 | 3.2 | 0.00 | 0.00 | 0.00 | 85 | 1021.0 |
| 20260506144002 | 13 | 342 | 0.0 | 3.2 | 0.00 | 0.00 | 0.00 | 85 | 1020.9 |
| 20260506143502 | 13 | 342 | 0.0 | 3.2 | 0.00 | 0.00 | 0.00 | 85 | 1020.9 |
| 20260506143005 | 13 | 350 | 0.0 | 3.2 | 0.00 | 0.00 | 0.00 | 84 | 1020.7 |
| 20260506142503 | 13 | 13 | 0.0 | 3.2 | 0.00 | 0.00 | 0.00 | 85 | 1020.8 |
| 20260506142003 | 13 | 336 | 0.0 | 3.2 | 0.00 | 0.00 | 0.00 | 85 | 1020.7 |
| 20260506141503 | 13 | 334 | 0.0 | 3.2 | 0.00 | 0.00 | 0.00 | 85 | 1020.5 |
| 20260506141006 | 13 | 347 | 0.0 | 3.2 | 0.00 | 0.00 | 0.00 | 86 | 1020.4 |
| 20260506140505 | 13 | 347 | 0.0 | 3.2 | 0.00 | 0.00 | 0.00 | 85 | 1020.1 |
| 20260506140003 | 13 | 320 | 0.0 | 3.2 | 0.00 | 0.00 | 0.00 | 85 | 1020.1 |
| 20260506135503 | 13 | 326 | 0.0 | 3.2 | 0.00 | 0.00 | 0.00 | 85 | 1020.1 |
| 20260506135005 | 13 | 169 | 0.0 | 0.0 | 0.00 | 0.00 | 0.00 | 86 | 1020.1 |
| 20260506134504 | 13 | 340 | 0.0 | 3.2 | 0.00 | 0.00 | 0.00 | 85 | 1020.0 |
| 20260506134002 | 13 | 340 | 0.0 | 3.2 | 0.00 | 0.00 | 0.00 | 86 | 1020.0 |
| 20260506133503 | 13 | 325 | 0.0 | 3.2 | 0.00 | 0.00 | 0.00 | 86 | 1020.0 |
| 20260506133004 | 13 | 17 | 0.0 | 0.0 | 0.00 | 0.00 | 0.00 | 86 | 1020.0 |
| 20260506132504 | 13 | 11 | 0.0 | 3.2 | 0.00 | 0.00 | 0.00 | 86 | 1020.0 |
| 20260506132002 | 13 | 11 | 0.0 | 3.2 | 0.00 | 0.00 | 0.00 | 86 | 1020.0 |
| 20260506131507 | 13 | 118 | 0.0 | 0.0 | 0.00 | 0.00 | 0.00 | 86 | 1019.9 |
| 20260506131004 | 13 | 118 | 0.0 | 0.0 | 0.00 | 0.00 | 0.00 | 86 | 1019.7 |
| 20260506130503 | 12 | 118 | 0.0 | 0.0 | 0.00 | 0.00 | 0.00 | 86 | 1019.5 |
| 20260506130004 | 13 | 118 | 0.0 | 0.0 | 0.00 | 0.00 | 0.00 | 85 | 1019.4 |
| 20260506125504 | 13 | 118 | 0.0 | 0.0 | 0.00 | 0.00 | 0.00 | 85 | 1019.3 |
| 20260506125003 | 13 | 118 | 0.0 | 0.0 | 0.00 | 0.00 | 0.00 | 85 | 1019.3 |
| 20260506124504 | 13 | 118 | 0.0 | 0.0 | 0.00 | 0.00 | 0.00 | 85 | 1019.3 |
| 20260506124003 | 13 | 118 | 0.0 | 3.2 | 0.00 | 0.00 | 0.00 | 85 | 1019.3 |
| 20260506123505 | 13 | 118 | 0.0 | 3.2 | 0.00 | 0.00 | 0.00 | 84 | 1019.3 |
| 20260506123002 | 13 | 124 | 0.0 | 3.2 | 0.00 | 0.00 | 0.00 | 84 | 1019.4 |
| 20260506122504 | 13 | 84 | 0.0 | 3.2 | 0.00 | 0.00 | 0.00 | 84 | 1019.3 |
| 20260506122003 | 13 | 95 | 0.0 | 3.2 | 0.00 | 0.00 | 0.00 | 84 | 1019.3 |
| 20260506121512 | 13 | 74 | 0.0 | 3.2 | 0.00 | 0.00 | 0.00 | 84 | 1019.4 |
| 20260506121003 | 13 | 67 | 0.0 | 3.2 | 0.00 | 0.00 | 0.00 | 84 | 1019.5 |
| 20260506120503 | 13 | 55 | 0.0 | 3.2 | 0.00 | 0.00 | 0.00 | 84 | 1019.5 |
| 20260506120021 | 13 | 352 | 0.0 | 3.2 | 0.00 | 0.00 | 0.00 | 84 | 1019.5 |
| 20260506115504 | 13 | 351 | 0.0 | 0.0 | 0.00 | 0.00 | 0.00 | 84 | 1019.5 |
| 20260506115003 | 13 | 351 | 0.0 | 1.6 | 0.00 | 0.00 | 0.00 | 84 | 1019.4 |
| 20260506114508 | 13 | 306 | 0.0 | 1.6 | 0.00 | 0.00 | 0.00 | 84 | 1019.4 |
| 20260506114004 | 13 | 332 | 0.0 | 0.0 | 0.00 | 0.00 | 0.00 | 84 | 1019.3 |
| 20260506113502 | 13 | 5 | 0.0 | 1.6 | 0.00 | 0.00 | 0.00 | 84 | 1019.3 |
| 20260506113004 | 13 | 5 | 0.0 | 3.2 | 0.00 | 0.00 | 0.00 | 83 | 1019.2 |
| 20260506112508 | 13 | 33 | 0.0 | 3.2 | 0.00 | 0.00 | 0.00 | 83 | 1019.2 |
| 20260506112003 | 13 | 342 | 0.0 | 3.2 | 0.00 | 0.00 | 0.00 | 83 | 1019.2 |
| 20260506111504 | 13 | 28 | 0.0 | 1.6 | 0.00 | 0.00 | 0.00 | 83 | 1019.1 |
| 20260506111004 | 13 | 325 | 0.0 | 0.0 | 0.00 | 0.00 | 0.00 | 83 | 1019.2 |
| 20260506110504 | 13 | 325 | 0.0 | 0.0 | 0.00 | 0.00 | 0.00 | 83 | 1019.1 |
| 20260506110020 | 13 | 333 | 0.0 | 3.2 | 0.00 | 0.00 | 0.00 | 83 | 1018.9 |
| 20260506105504 | 13 | 342 | 0.0 | 3.2 | 0.00 | 0.00 | 0.00 | 83 | 1018.9 |
| 20260506105003 | 13 | 315 | 0.0 | 3.2 | 0.00 | 0.00 | 0.00 | 83 | 1018.8 |
| 20260506104519 | 13 | 342 | 0.0 | 1.6 | 0.00 | 0.00 | 0.00 | 83 | 1018.7 |
| 20260506104003 | 13 | 9 | 0.0 | 3.2 | 0.00 | 0.00 | 0.00 | 83 | 1018.6 |
| 20260506103503 | 13 | 5 | 0.0 | 3.2 | 0.00 | 0.00 | 0.00 | 84 | 1018.6 |
| 20260506103016 | 13 | 344 | 0.0 | 0.0 | 0.00 | 0.00 | 0.00 | 83 | 1018.6 |
| 20260506102503 | 13 | 344 | 0.0 | 1.6 | 0.00 | 0.00 | 0.00 | 83 | 1018.4 |
| 20260506102004 | 13 | 344 | 0.0 | 1.6 | 0.00 | 0.00 | 0.00 | 83 | 1018.4 |
| 20260506101512 | 13 | 340 | 0.0 | 0.0 | 0.00 | 0.00 | 0.00 | 83 | 1018.3 |
| 20260506101005 | 13 | 340 | 0.0 | 0.0 | 0.00 | 0.00 | 0.00 | 83 | 1018.3 |
| 20260506100504 | 13 | 340 | 0.0 | 1.6 | 0.00 | 0.00 | 0.00 | 83 | 1018.2 |
| 20260506100012 | 13 | 340 | 0.0 | 1.6 | 0.00 | 0.00 | 0.00 | 82 | 1018.0 |